TimeCST,TemperatureF,Dew PointF,Humidity,Sea Level PressureIn,VisibilityMPH,Wind Direction,Wind SpeedMPH,Gust SpeedMPH,PrecipitationIn,Events,Conditions,WindDirDegrees,DateUTC
12:14 AM,17.6,15.8,93,30.01,10.0,WSW,4.6,-,N/A,,Clear,250,2013-02-12 06:14:00
12:33 AM,17.6,14.0,86,30.01,10.0,WSW,4.6,-,N/A,,Clear,250,2013-02-12 06:33:00
12:54 AM,17.6,12.2,79,30.01,10.0,WSW,4.6,-,N/A,,Clear,240,2013-02-12 06:54:00
1:14 AM,15.8,12.2,86,30.01,10.0,WSW,5.8,-,N/A,,Clear,250,2013-02-12 07:14:00
1:34 AM,15.8,12.2,86,30.01,10.0,WSW,6.9,-,N/A,,Clear,240,2013-02-12 07:34:00
1:54 AM,15.8,12.2,86,30.01,10.0,SW,6.9,-,N/A,,Clear,230,2013-02-12 07:54:00
2:14 AM,15.8,12.2,86,30.01,10.0,SW,5.8,-,N/A,Snow,Light Snow,230,2013-02-12 08:14:00
2:34 AM,15.8,12.2,86,30.01,10.0,SW,5.8,-,N/A,Snow,Light Snow,230,2013-02-12 08:34:00
2:54 AM,17.6,14.0,86,30.01,10.0,SW,6.9,-,N/A,Snow,Light Snow,230,2013-02-12 08:54:00
3:13 AM,17.6,15.8,93,30.00,10.0,SW,4.6,-,N/A,Snow,Light Snow,230,2013-02-12 09:13:00
3:34 AM,17.6,15.8,93,30.00,10.0,SW,5.8,-,N/A,Snow,Light Snow,220,2013-02-12 09:34:00
3:54 AM,19.4,15.8,86,30.00,10.0,SSW,4.6,-,N/A,Snow,Light Snow,210,2013-02-12 09:54:00
4:13 AM,19.4,15.8,86,29.99,10.0,SW,6.9,-,N/A,Snow,Light Snow,220,2013-02-12 10:13:00
4:34 AM,19.4,15.8,86,29.99,10.0,SSW,5.8,-,N/A,,Overcast,210,2013-02-12 10:34:00
4:54 AM,19.4,15.8,86,29.98,10.0,SSW,4.6,-,N/A,,Overcast,200,2013-02-12 10:54:00
5:13 AM,19.4,15.8,86,29.98,10.0,South,4.6,-,N/A,,Overcast,190,2013-02-12 11:13:00
5:34 AM,19.4,15.8,86,29.97,10.0,South,5.8,-,N/A,,Overcast,180,2013-02-12 11:34:00
5:54 AM,21.2,15.8,80,29.97,10.0,SSW,5.8,-,N/A,,Overcast,200,2013-02-12 11:54:00
6:14 AM,21.2,17.6,86,29.97,10.0,SSW,4.6,-,N/A,,Overcast,200,2013-02-12 12:14:00
6:34 AM,21.2,15.8,80,29.97,10.0,South,10.4,-,N/A,,Mostly Cloudy,190,2013-02-12 12:34:00
6:45 AM,21.2,19.4,93,29.97,10.0,South,8.1,-,N/A,,Overcast,190,2013-02-12 12:45:00
6:54 AM,19.4,15.8,86,29.96,10.0,South,6.9,-,N/A,,Scattered Clouds,190,2013-02-12 12:54:00
7:55 AM,15.8,14.0,93,29.95,10.0,SSE,6.9,-,N/A,,Partly Cloudy,150,2013-02-12 13:55:00
8:50 AM,19.4,15.8,86,29.93,10.0,South,9.2,-,N/A,,Partly Cloudy,170,2013-02-12 14:50:00
9:55 AM,26.6,19.4,74,29.91,10.0,South,15.0,19.6,N/A,,Mostly Cloudy,180,2013-02-12 15:55:00
11:50 AM,30.2,21.2,69,29.88,10.0,SSW,8.1,12.7,N/A,,Scattered Clouds,200,2013-02-12 17:50:00
12:50 PM,33.8,21.2,60,29.85,10.0,SSW,8.1,12.7,N/A,,Clear,210,2013-02-12 18:50:00
1:45 PM,33.8,21.2,60,29.83,10.0,SW,9.2,-,N/A,,Clear,220,2013-02-12 19:45:00
2:45 PM,35.6,21.2,56,29.82,10.0,SW,9.2,-,N/A,,Clear,230,2013-02-12 20:45:00
3:55 PM,33.8,23.0,65,29.83,10.0,WSW,8.1,-,N/A,,Clear,240,2013-02-12 21:55:00
4:55 PM,33.8,23.0,65,29.83,10.0,WSW,10.4,-,N/A,,Clear,240,2013-02-12 22:55:00
5:50 PM,30.2,23.0,75,29.83,10.0,WSW,5.8,-,N/A,,Clear,240,2013-02-12 23:50:00
6:45 PM,28.4,21.2,74,29.83,10.0,WSW,5.8,-,N/A,,Clear,240,2013-02-13 00:45:00
7:45 PM,28.4,21.2,74,29.81,10.0,SW,5.8,-,N/A,,Clear,230,2013-02-13 01:45:00
8:45 PM,28.4,21.2,74,29.82,10.0,WSW,5.8,-,N/A,,Scattered Clouds,240,2013-02-13 02:45:00
9:14 PM,26.6,21.2,80,29.82,10.0,WSW,5.8,-,N/A,,Clear,240,2013-02-13 03:14:00
9:34 PM,26.6,21.2,80,29.81,10.0,WSW,5.8,-,N/A,,Clear,240,2013-02-13 03:34:00
9:54 PM,26.6,21.2,80,29.81,10.0,WSW,5.8,-,N/A,,Clear,250,2013-02-13 03:54:00
10:14 PM,26.6,21.2,80,29.80,10.0,WSW,5.8,-,N/A,,Clear,250,2013-02-13 04:14:00
10:34 PM,24.8,21.2,86,29.80,10.0,West,4.6,-,N/A,,Clear,260,2013-02-13 04:34:00
10:54 PM,24.8,21.2,86,29.79,10.0,WSW,5.8,-,N/A,,Scattered Clouds,250,2013-02-13 04:54:00
11:14 PM,24.8,19.4,80,29.79,10.0,SW,4.6,-,N/A,,Overcast,230,2013-02-13 05:14:00
11:34 PM,24.8,19.4,80,29.78,10.0,WSW,3.5,-,N/A,,Overcast,240,2013-02-13 05:34:00
11:54 PM,24.8,19.4,80,29.78,10.0,SW,3.5,-,N/A,,Overcast,230,2013-02-13 05:54:00